Find Starlink 31415

NORAD ID: 59419 Int'l Des: 2024-064 Owner: SPXS Country: US Constellation: starlink operational
LEOCIRCULAR

当前视图

正在加载3D地球...

About Starlink 31415

Starlink 31415 (NORAD 59419) is a starlink constellation satellite (v2 mini) launched Apr 5, 2024 by SPXS of US. It operates in LEO, CIRCULAR orbit with a mass of 730.00 kg.

即将过境

Passes for default location (London). Set your location on the main map for personalized predictions.

高度历史

Loading altitude history...

两行轨道根数

1 59419U 24064X 26206.47574545 .00001416 00000-0 60971-4 0 9990
2 59419 43.0026 358.4378 0000797 238.4475 121.6299 15.27568785130298
Epoch: Jul 25, 2026 • Age: 13 hours

当前状态

高度 484.6 km
远地点 / 近地点 N/A
速度 7.63 km/s
星下点 32.65°N, 91.85°E
发射日期 Apr 5, 2024
运行时间 2.3 years
类型 internet

技术详情

分类 Payload
质量 730.00 kg
干质量 700.00 kg
总质量 730.00 kg
长度 0.30 m
直径 4.10 m
跨度 29.00 m
形状 Box + pan
制造商 SPXS
平台类型 Starlink V2M
阶段状态 In Orbit
所有者/国家 SPXS/US

Most Searched